User: anonymous   Login
Location: Days
(41.3591°N, 106.7339°W)
Time: 10:54:40
(UTC+00:00)
Language:

STRAND 1 - Orbit

View from above orbital plane
View from above orbital plane
View from above satellite
View from above satellite

Ground track
Ground track

The orbit data is extracted from the following two-line orbital elements,

1 39090U 13009E   22179.52277697  .00000095  00000-0  47903-4 0  9991
2 39090  98.4039  17.3702 0007986 234.2111 125.8333 14.35297322488980
Epoch (UTC): 28 June 2022 12:32:47
Eccentricity: 0.0007986
inclination: 98.4039°
perigee height: 768 km
apogee height: 780 km
right ascension of ascending node: 17.3702°
argument of perigee: 234.2111°
revolutions per day: 14.35297322
mean anomaly at epoch: 125.8333°
orbit number at epoch: 48898

The dashed part of the orbit path shows where the satellite is in the earth's shadow,  

DLR